[[{"header":{"parameterUnit":"m.s-1","parameterCategory":1,"la1":30.2992,"la2":30.254,"lo1":-89.0895,"lo2":-89.0443,"dy":0.0025,"dx":0.0025,"nx":19,"ny":19,"refTime":"2026-04-21T21:00:00:Z","depth":0,"parameterNumber":2,"parameterNumberName":"U-component_of_WINDS"},"data":[0,0,0,-3.0448,-3.0451,-3.061,-3.061,-3.0813,-3.0814,0,0,0,0,0,0,0,0,0,0,0,-3.0401,-3.0403,-3.0448,-3.0452,-3.0609,-3.061,-3.0812,-3.0814,0,0,0,0,0,0,0,0,0,0,0,-3.0401,-3.0402,-3.0404,-3.0452,-3.0609,-3.061,-3.0812,-3.0693,0,0,0,0,0,0,0,0,0,0,-3.0539,-3.0496,-3.0402,-3.0404,-3.0453,-3.0609,-3.061,-3.0687,-3.07,-3.0741,0,-3.0777,0,-3.0799,-3.0828,-3.0829,0,0,0,-3.0452,-3.0485,-3.0527,-3.0404,-3.0455,-3.0609,-3.0538,-3.0694,-3.0709,-3.0758,-3.078,-3.0788,-3.0802,-3.0829,-3.083,-3.1065,-3.1066,0,0,-3.0443,-3.043,-3.0517,-3.0537,-3.0512,-3.0533,-3.0543,-3.0703,-3.0726,-3.0781,-3.0792,-3.0806,-3.0831,-3.0832,-3.1064,-3.1065,0,0,0,-3.0418,-3.0424,-3.0462,-3.0529,-3.0557,-3.0538,-3.0549,-3.0719,-3.0733,-3.0795,-3.0808,-3.0832,-3.0834,-3.1063,-3.1065,-3.1104,0,0,0,-3.0413,-3.0409,-3.0459,-3.0452,-3.0554,-3.064,-3.0561,-3.0722,-3.074,-3.0807,-3.0832,-3.0836,-3.1062,-3.1064,-3.1101,-3.1125,0,0,0,-3.0391,-3.0407,-3.0429,-3.0451,-3.0518,-3.0638,-3.0661,-3.0726,-3.0748,-3.0829,-3.0837,-3.1061,-3.1063,-3.1097,-3.112,-3.1182,0,0,0,-3.0364,-3.0463,-3.043,-3.0546,-3.0517,-3.0661,-3.066,-3.0768,-3.0842,-3.0833,-3.1062,-3.1064,-3.1096,-3.1116,-3.1178,-3.1231,-3.1252,0,0,-3.0482,-3.0477,-3.0546,-3.0521,-3.0668,-3.0638,-3.0791,-3.0872,-3.0893,-3.1006,-3.1012,-3.1102,-3.1119,-3.1181,-3.1376,-3.1392,0,0,0,-3.0579,-3.0629,-3.067,-3.074,-3.0803,-3.086,-3.0918,-3.0948,-3.1046,-3.0948,-3.1142,-3.1153,-3.119,-3.1215,-3.123,-3.1262,-3.1076,-3.1076,-3.1075,-3.0726,-3.0746,-3.0862,-3.0901,-3.0968,-3.1027,-3.1084,-3.1134,-3.1136,-3.1181,-3.1215,-3.133,-3.136,-3.1371,-3.1404,-3.1245,-3.1245,-3.1246,-3.1246,-3.0899,-3.0972,-3.0971,-3.1083,-3.1103,-3.1198,-3.1259,-3.1257,-3.1347,-3.1307,-3.134,-3.1293,-3.1388,-3.1418,-3.1249,-3.1248,-3.1248,-3.1248,-3.1247,-3.0997,-3.1035,-3.1069,-3.1171,-3.1247,-3.1284,-3.1371,-3.1387,-3.1403,-3.1436,-3.1473,-3.1472,-3.1473,-3.1453,-3.1453,-3.1454,-3.1454,-3.1454,-3.1455,-3.1084,-3.1121,-3.1192,-3.1267,-3.1313,-3.1376,-3.1437,-3.1483,-3.1538,-3.1543,-3.1544,-3.154,-3.1394,-3.1356,-3.1461,-3.146,-3.1459,-3.1458,-3.1458,-3.125,-3.1215,-3.1324,-3.137,-3.146,-3.1534,-3.1554,-3.1646,-3.1687,-3.1729,-3.1719,-3.1608,-3.1605,-3.1594,-3.1562,-3.1714,-3.1714,-3.1714,-3.1714,-3.1331,-3.1331,-3.1446,-3.1518,-3.1591,-3.162,-3.1743,-3.1791,-3.1835,-3.1862,-3.1842,-3.1803,-3.1791,-3.1794,-3.1779,-3.175,-3.1946,-3.1946,-3.1947,-3.1434,-3.1442,-3.1543,-3.1584,-3.1656,-3.1716,-3.1832,-3.1915,-3.1959,-3.1956,-3.1882,-3.1872,-3.1809,-3.1787,-3.1782,-3.1758,-3.1705,0,0]},{"header":{"parameterUnit":"m.s-1","parameterCategory":1,"la1":30.2992,"la2":30.254,"lo1":-89.0895,"lo2":-89.0443,"dy":0.0025,"dx":0.0025,"nx":19,"ny":19,"refTime":"2026-04-21T21:00:00:Z","depth":0,"parameterNumber":3,"parameterNumberName":"V-component_of_WINDS"},"data":[0,0,0,3.4745,3.4746,3.4783,3.4783,3.4847,3.4848,0,0,0,0,0,0,0,0,0,0,0,3.4745,3.4745,3.4745,3.4746,3.4783,3.4783,3.4847,3.4848,0,0,0,0,0,0,0,0,0,0,0,3.4744,3.4745,3.4746,3.4746,3.4783,3.4783,3.4847,3.4813,0,0,0,0,0,0,0,0,0,0,3.4774,3.4784,3.4745,3.4746,3.4746,3.4783,3.4783,3.4811,3.4815,3.4838,0,3.4862,0,3.4856,3.4853,3.4854,0,0,0,3.4738,3.4781,3.4781,3.4746,3.4747,3.4783,3.4764,3.4813,3.4818,3.4843,3.4862,3.4864,3.4857,3.4854,3.4854,3.5015,3.5016,0,0,3.4736,3.4757,3.4778,3.4785,3.4781,3.4763,3.4765,3.4815,3.4838,3.4863,3.4866,3.4858,3.4855,3.4855,3.5014,3.5015,0,0,0,3.4735,3.4756,3.4755,3.4783,3.4788,3.4764,3.4767,3.4835,3.4833,3.4866,3.4859,3.4855,3.4856,3.5012,3.5014,3.509,0,0,0,3.4734,3.4756,3.4754,3.4768,3.4788,3.4813,3.4786,3.483,3.4835,3.4859,3.4855,3.4857,3.5011,3.5013,3.5085,3.5122,0,0,0,3.4738,3.4756,3.4765,3.4769,3.4786,3.4811,3.4812,3.483,3.4831,3.4854,3.4857,3.501,3.5013,3.5081,3.5115,3.5169,0,0,0,3.475,3.4833,3.4767,3.4857,3.4786,3.4859,3.4811,3.4865,3.4894,3.4855,3.5011,3.5014,3.508,3.5111,3.5165,3.5218,3.5243,0,0,3.4867,3.4848,3.4899,3.4841,3.4932,3.4851,3.4953,3.4959,3.4941,3.4991,3.4995,3.5087,3.5115,3.5168,3.5376,3.5395,0,0,0,3.4944,3.4981,3.5,3.5029,3.5036,3.5045,3.5033,3.5035,3.5076,3.4972,3.5122,3.5137,3.5168,3.5192,3.5209,3.5233,3.5027,3.5026,3.5026,3.5139,3.5113,3.5195,3.5173,3.5202,3.5189,3.5209,3.521,3.5175,3.5211,3.5225,3.5354,3.5383,3.5395,3.5421,3.5252,3.5252,3.5253,3.5253,3.5307,3.5354,3.5306,3.5368,3.534,3.5392,3.5383,3.5356,3.54,3.5341,3.5367,3.5304,3.5418,3.5439,3.5258,3.5257,3.5257,3.5256,3.5256,3.543,3.5448,3.545,3.5488,3.5521,3.5495,3.5539,3.5512,3.5486,3.5512,3.5523,3.5521,3.5515,3.5519,3.552,3.552,3.5521,3.5521,3.5521,3.5557,3.5557,3.5597,3.5612,3.5626,3.5641,3.563,3.5643,3.565,3.5626,3.5626,3.5587,3.5435,3.5396,3.5528,3.5527,3.5526,3.5525,3.5525,3.5734,3.569,3.5753,3.5767,3.5781,3.5814,3.5779,3.5808,3.5815,3.5837,3.5793,3.5685,3.5664,3.565,3.5618,3.5799,3.5799,3.5799,3.5799,3.5837,3.5824,3.5881,3.5906,3.5927,3.5901,3.5972,3.5963,3.5948,3.595,3.592,3.5876,3.5863,3.5849,3.5831,3.58,3.6024,3.6024,3.6024,3.5944,3.5931,3.5997,3.5981,3.599,3.5998,3.6063,3.6092,3.6065,3.6033,3.5951,3.5941,3.5869,3.5847,3.5811,3.5784,3.5727,0,0]}]]